星链-33588 (STARLINK-33588)

导读

STARLINK-33558是美国太空探索技术公司(SpaceX)星链星座的成员卫星,星链星座旨在为全球提供高速低延迟卫星互联网服务。该卫星于2025年1月21日由美国发射入轨,延续了星链大规模部署节奏,进一步扩充星座规模,助力提升全球网络覆盖密度与服务稳定性。

Basic Information
目录编号:
62781
目录名称:
STARLINK-33588
国际标识:
2025-015Z
轨道中心:
EARTH
卫星名称:
星链-33588
卫星全名:
星链-33588 (STARLINK-33588)
卫星状态:
在轨 (已飞行591 天)
发射日期:
2025-01-21 UTC
国别 :
美国 (US)
星等 :
--
Orbit Information
数据来源 国际轨道数据
星历时间: 2026-09-03T12:27:19+0800
1天前
查看轨道信息
半长轴: 6840.837km
偏心率: 0.0001068
轨道倾角: 53.158°
近地点辐角 91.553°
升交点赤经 212.476°
平近点角 268.559°
近地点: 461.969km
远地点: 463.431km
周期: 93.848分钟
每日圈数: 15.344014
Detailed Information
固有亮度:
5
最大亮度:
2.5
卫星平台:
Starlink V1.0
覆盖范围:
全球
运营商:
太空探索技术公司
运营商所在国:
美国
制造商(研发单位):
太空探索技术公司
制造商所在国:
美国
使用方式:
暂无
Satellite Introduction
Starlink 计划是 SpaceX 推出的全球卫星互联网项目,通过发射低轨道卫星,为全球尤其是偏远地区提供高速、低延迟的互联网服务。自 2019 年起,Starlink 已部署数千颗卫星,旨在缩小全球数字鸿沟,推动互联网普及。该项目还为军事、航空等行业提供通信支持,带来广泛经济效益。
2D Orbit Map
3D Orbit Map
Orbit Altitude Analysis Chart
Orbit Inclination Analysis Chart
Orbit Comprehensive Analysis Chart
View Comprehensive Chart
Conjunction Data List
Event ID Objects TCA Miss Dist (km) Collision Risk Probability Collision Risk Index (CRI) Action
CDM_260906-000705-179806-278121
2026-09-06T
00:07:34+0000
1.032 km
极远距离
1.109939E-5 中风险 0.56
CDM_260905-165506-041706-278121
2026-09-05T
16:55:00+0000
1.169 km
极远距离
9.944714E-6 低风险 0.55
CDM_260906-043806-041706-278121
2026-09-06T
04:38:27+0000
1.191 km
极远距离
9.310967E-6 低风险 0.54
CDM_260905-182806-041706-278121
2026-09-05T
18:28:48+0000
1.725 km
极远距离
2.812595E-6 低风险 0.44
CDM_260906-030406-041706-278121
2026-09-06T
03:04:40+0000
1.821 km
极远距离
2.420174E-6 低风险 0.43
CDM_260904-145205-258106-278122
2026-09-04T
14:52:05+0000
2.959 km
极远距离
1.220414E-6 低风险 0.37
CDM_260905-223305-179806-278121
2026-09-05T
22:33:46+0000
2.309 km
极远距离
1.056967E-6 低风险 0.35